Weather History for Andrews, NC

Change the Weather History Date:

Sunday, April 27, 2014

  Actual Average (KTYS) Record (KTYS)
Temperature  
Mean Temperature 64 °F 62 °F  
Max Temperature 84 °F 73 °F 91 °F (1986)
Min Temperature 43 °F 51 °F 34 °F (1976)
Degree Days  
Heating Degree Days 2 5  
Month to date heating degree days 207  
Since 1 July heating degree days 3564  
Cooling Degree Days 0 2  
Month to date cooling degree days 27  
Year to date cooling degree days 32  
Growing Degree Days 14 (Base 50)    
Moisture  
Dew Point 50 °F    
Average Humidity 69    
Maximum Humidity 97    
Minimum Humidity 28    
Precipitation  
Precipitation 0.04 in 0.14 in 3.55 in (2011)
Month to date precipitation 3.60  
Year to date precipitation 16.52  
Snow  
Snow 0.00 in 0.00 in - ()
Month to date snowfall 0.5  
Since 1 July snowfall 6.5  
Snow Depth -    
Sea Level Pressure  
Sea Level Pressure 30.00 in    
Wind  
Wind Speed 2 mph (WSW)    
Max Wind Speed 13 mph    
Max Gust Speed 20 mph    
Visibility 10 miles    
Events Rain    
T = Trace of Precipitation, MM = Missing Value Source: NWS Daily Summary

Daily Weather History Graph

Daily Weather History Graph

Search for Another Location

Airport:

Trip Planner

Search our weather history database for the weather conditions in past years. The results will help you decide how hot, cold, wet, or windy it might be!

Date:

Astronomy

Apr. 27, 2014 Rise Set
Actual Time 6:48 AM EDT 8:18 PM EDT
Civil Twilight 6:21 AM EDT 8:44 PM EDT
Nautical Twilight 5:49 AM EDT 9:17 PM EDT
Astronomical Twilight 5:15 AM EDT 9:51 PM EDT
Moon 5:44 AM EDT (4/27) 6:54 PM EDT (4/27)
Length of Visible Light 14h 23m
Length of Day
13h 29m
Waning Crescent, 3% of the Moon is Illuminated
Apr 27
Waning Crescent
Apr 29
New
May 6
First Quarter
May 14
Full
May 21
Last Quarter

Hourly Weather History & Observations

Time (EDT) Temp. Dew Point Humidity Pressure Visibility Wind Dir Wind Speed Gust Speed Precip Events Conditions
12:15 AM 52.0 °F 47.5 °F 85% 30.03 in 10.0 mi Calm Calm - N/A   Clear
12:35 AM 49.1 °F 46.9 °F 92% 30.03 in 10.0 mi Calm Calm - N/A   Clear
12:55 AM 49.5 °F 46.4 °F 89% 30.03 in 10.0 mi Calm Calm - N/A   Clear
1:15 AM 48.9 °F 46.6 °F 92% 30.03 in 10.0 mi Calm Calm - N/A   Clear
1:35 AM 48.4 °F 45.1 °F 89% 30.03 in 10.0 mi Calm Calm - N/A   Clear
1:55 AM 49.1 °F 45.9 °F 89% 30.03 in 10.0 mi Calm Calm - N/A   Clear
2:15 AM 47.8 °F 45.7 °F 92% 30.03 in 10.0 mi Calm Calm - N/A   Clear
2:35 AM 47.7 °F 44.6 °F 89% 30.03 in 7.0 mi Calm Calm - N/A   Clear
2:55 AM 46.8 °F 45.3 °F 95% 30.02 in 10.0 mi Calm Calm - N/A   Clear
3:15 AM 47.3 °F 45.0 °F 92% 30.01 in 10.0 mi Calm Calm - N/A   Clear
3:35 AM 47.3 °F 45.1 °F 92% 30.01 in 10.0 mi Calm Calm - N/A   Clear
3:55 AM 46.2 °F 44.8 °F 95% 30.01 in 10.0 mi Calm Calm - N/A   Clear
4:15 AM 45.5 °F 43.9 °F 94% 30.02 in 10.0 mi Calm Calm - N/A   Clear
4:35 AM 44.6 °F 43.2 °F 95% 30.02 in 10.0 mi Calm Calm - N/A   Clear
4:55 AM 45.3 °F 44.6 °F 97% 30.02 in 10.0 mi Calm Calm - N/A   Clear
5:15 AM 44.2 °F 42.4 °F 93% 30.03 in 10.0 mi Calm Calm - N/A   Clear
5:35 AM 44.8 °F 43.3 °F 95% 30.03 in 10.0 mi Calm Calm - N/A   Clear
5:55 AM 44.6 °F 43.2 °F 95% 30.03 in 10.0 mi Calm Calm - N/A   Clear
6:15 AM 43.9 °F 43.2 °F 97% 30.03 in 10.0 mi Calm Calm - N/A   Clear
6:35 AM 43.9 °F 42.1 °F 93% 30.04 in 10.0 mi Calm Calm - N/A   Clear
6:55 AM 44.6 °F 43.7 °F 97% 30.04 in 10.0 mi Calm Calm - N/A   Clear
7:15 AM 44.1 °F 43.3 °F 97% 30.05 in 10.0 mi Calm Calm - N/A   Clear
7:35 AM 45.1 °F 43.7 °F 95% 30.06 in 10.0 mi Calm Calm - N/A   Clear
7:55 AM 47.1 °F 45.0 °F 92% 30.06 in 10.0 mi Calm Calm - N/A   Clear
8:15 AM 48.2 °F 45.7 °F 91% 30.06 in 10.0 mi Calm Calm - N/A   Clear
8:35 AM 49.6 °F 46.2 °F 88% 30.06 in 10.0 mi Calm Calm - N/A   Clear
8:55 AM 51.4 °F 46.6 °F 83% 30.06 in 10.0 mi Calm Calm - N/A   Clear
9:15 AM 54.0 °F 48.6 °F 82% 30.05 in 10.0 mi Calm Calm - N/A   Clear
9:35 AM 57.6 °F 49.3 °F 74% 30.05 in 10.0 mi Calm Calm - N/A   Clear
9:55 AM 61.0 °F 49.8 °F 67% 30.04 in 10.0 mi Calm Calm - N/A   Clear
10:15 AM 64.0 °F 50.2 °F 61% 30.04 in 10.0 mi Calm Calm - N/A   Clear
10:35 AM 67.6 °F 51.8 °F 57% 30.03 in 10.0 mi WSW 3.5 mph - N/A   Clear
10:55 AM 71.6 °F 52.5 °F 51% 30.03 in 10.0 mi SW 4.6 mph - N/A   Clear
11:15 AM 74.3 °F 52.2 °F 46% 30.01 in 10.0 mi West 4.6 mph - N/A   Clear
11:35 AM 75.4 °F 51.6 °F 43% 30.00 in 10.0 mi West 5.8 mph - N/A   Clear
11:55 AM 76.5 °F 52.3 °F 43% 30.00 in 10.0 mi WNW 5.8 mph - N/A   Clear
12:15 PM 77.0 °F 51.6 °F 41% 29.99 in 10.0 mi WNW 4.6 mph - N/A   Clear
12:35 PM 77.7 °F 51.8 °F 40% 29.99 in 10.0 mi NNW 3.5 mph - N/A   Clear
1:15 PM 79.5 °F 52.3 °F 39% 29.98 in 10.0 mi WSW 9.2 mph - N/A   Clear
1:35 PM 80.8 °F 50.5 °F 35% 29.97 in 10.0 mi West 8.1 mph - N/A   Clear
1:55 PM 81.9 °F 51.3 °F 34% 29.96 in 10.0 mi WNW 8.1 mph - N/A   Clear
2:15 PM 81.9 °F 50.5 °F 34% 29.95 in 10.0 mi West 10.4 mph - N/A   Clear
2:35 PM 83.3 °F 52.3 °F 34% 29.94 in 10.0 mi WNW 6.9 mph - N/A   Clear
2:55 PM 83.8 °F 51.8 °F 33% 29.94 in 10.0 mi South 8.1 mph 18.4 mph N/A   Clear
3:15 PM 82.0 °F 49.5 °F 32% 29.93 in 10.0 mi Calm Calm - N/A   Scattered Clouds
3:55 PM 84.0 °F 50.9 °F 32% 29.92 in 10.0 mi SSW 6.9 mph - N/A   Scattered Clouds
4:15 PM 83.7 °F 47.1 °F 28% 29.91 in 10.0 mi WSW 9.2 mph 19.6 mph N/A   Scattered Clouds
4:35 PM 84.9 °F 50.5 °F 30% 29.90 in 10.0 mi SW 9.2 mph 17.3 mph N/A   Scattered Clouds
4:55 PM 83.3 °F 51.8 °F 34% 29.91 in 10.0 mi SW 12.7 mph 18.4 mph N/A   Scattered Clouds
5:15 PM 79.9 °F 52.5 °F 39% 29.92 in 10.0 mi SW 8.1 mph - N/A   Scattered Clouds
5:35 PM 79.0 °F 52.7 °F 40% 29.93 in 10.0 mi SW 11.5 mph 17.3 mph N/A   Scattered Clouds
6:15 PM 77.2 °F 52.7 °F 42% 29.93 in 10.0 mi SSW 11.5 mph - N/A   Clear
6:35 PM 76.5 °F 53.4 °F 45% 29.93 in 10.0 mi SW 10.4 mph 17.3 mph N/A   Scattered Clouds
6:55 PM 75.6 °F 54.5 °F 48% 29.92 in 10.0 mi SSW 8.1 mph - N/A   Clear
7:15 PM 75.9 °F 54.1 °F 47% 29.93 in 10.0 mi SW 6.9 mph - N/A   Clear
7:35 PM 75.2 °F 54.0 °F 47% 29.93 in 10.0 mi SSW 8.1 mph 18.4 mph N/A   Clear
7:55 PM 74.5 °F 54.0 °F 49% 29.93 in 10.0 mi SSW 3.5 mph - N/A   Mostly Cloudy
8:15 PM 74.3 °F 53.2 °F 48% 29.93 in 10.0 mi South 8.1 mph - N/A   Overcast
8:55 PM 68.7 °F 58.6 °F 70% 29.94 in 10.0 mi West 10.4 mph - N/A Rain Light Rain
9:15 PM 67.5 °F 59.0 °F 74% 29.95 in 10.0 mi WSW 4.6 mph - N/A   Mostly Cloudy
9:35 PM 68.2 °F 58.1 °F 70% 29.98 in 10.0 mi WSW 6.9 mph - N/A   Overcast
9:55 PM 67.5 °F 58.6 °F 73% 29.99 in 10.0 mi WSW 3.5 mph - N/A   Overcast
10:15 PM 66.7 °F 59.0 °F 76% 30.00 in 10.0 mi WSW 5.8 mph - N/A Rain Light Rain
10:35 PM 64.6 °F 60.1 °F 85% 30.03 in 10.0 mi West 5.8 mph - N/A Rain Light Rain
10:55 PM 63.5 °F 60.8 °F 91% 30.02 in 7.0 mi WNW 4.6 mph - 0.01 in Rain Light Rain
11:15 PM 63.1 °F 61.2 °F 93% 30.01 in 10.0 mi Calm Calm - 0.01 in Rain Light Rain
11:35 PM 62.2 °F 61.2 °F 96% 30.03 in 7.0 mi Calm Calm - 0.01 in Rain Light Rain
11:55 PM 62.2 °F 61.3 °F 97% 30.01 in 7.0 mi ENE 3.5 mph - 0.03 in Rain Light Rain